Погода в Брахманбарии

Бангладеш     24°01′41″N   91°00′11″E
темп.,
°C
ветер,
м/с
пор.,
м/с
влажн.,
%
обл.,
%
осадки,
мм/ч
давл.,
гПа
погр.,
м
20 июня, вс
вс2000:00+24ююв479796 2.1 1005261
03:00+24ююв479897 0.0 1003301
06:00+24юв4896100 0.0 1004339
09:00+25юв489394 0.0 1005434
12:00+28ююв787943 1.6 1005879
15:00+29ююв787772 0.6 1003974
18:00+27ююв6108751 1.8 1003664
21:00+25юв6129193 0.1 1005577
21 июня, пн
пн2100:00+24юв5109349 0.1 1004395
03:00+24юв4995100 1.1 1003357
06:00+24юв389540 1.7 1004312
09:00+28юв458168 0.2 1005732
12:00+29ююв447653 4.3 1004858
15:00+31ююв446988 2.4 10011206
18:00+29ююв46835 6.9 1001334
21:00+26ююв489310 3.8 1003228
22 июня, вт
вт2200:00+25юв49955 6.1 1003308
03:00+25юв499634 2.2 1003300
06:00+25юв499536 2.4 1004332
09:00+30ююв567644 0.0 1005867
12:00+31ююв5570100 2.8 10041151
15:00+32ю566676 0.6 10011282
18:00+30ю5977100 1.1 1001474
21:00+27ююв51185100 0.0 1004430
23 июня, ср
ср2300:00+26ююв51189100 0.9 1004418
03:00+26ююв41093100 0.6 1003367
06:00+26юв499397 1.2 1004379
09:00+30ююв567483 0.2 1005800
12:00+32ю556788 2.8 10031268
15:00+31ю4674100 6.1 1002856
18:00+30ю51079100 9.4 1002410
21:00+27ююв51189100 1.1 1004400
24 июня, чт
чт2400:00+27ююв5119199 1.7 1004475
03:00+26ююв41094100 4.4 1002442
06:00+26ююв5109399 7.3 1003365
09:00+29ююв6779100 0.8 1004722
12:00+31ю6668100 1.3 10021157
15:00+32ю3464100 0.4 10001218
18:00+29ююв3683100 5.6 1000216
21:00+27ююв4109127 2.3 1001320